This demonstration page uses our WeatherBlox Daily Observations layout. Learn more.

Left ArrowRight Arrow

Hourly Observations for June 9, 2019

Temp ( °F °C ) Dew Point ( °F °C ) Humidity (%) Winds ( mph kmh ) Pressure ( in mb ) Visibility ( mi km ) Precip ( " mm )
12:59 am 00:59 Cloudy 72 22.2 70 21.1 94 94 NE 14 22 30.06 1018 7 11 0.00 0.00
1:42 am 01:42 Cloudy with Light Rain 72 22.2 70 21.1 94 94 NE 16 26 30.04 1017 3 5 0.00 0.03
1:59 am 01:59 Cloudy with Light Rain 72 22.2 70 21.1 94 94 NE 15 24 30.03 1017 3 5 0.01 0.25
2:59 am 02:59 Cloudy with Mist and Fog 72 22.2 70 21.1 94 94 NE 13 20 30.01 1016 6 10 0.00 0.03
3:59 am 03:59 Cloudy with Light Rain 72 22.2 69 20.6 91 91 ENE 14 22 30.00 1016 5 8 0.00 0.03
4:21 am 04:21 Cloudy with Mist and Fog 72 22.2 69 20.6 91 91 ENE 15 24 30.00 1016 6 10 0.00 0.03
4:59 am 04:59 Cloudy 72 22.2 69 20.6 91 91 ENE 15 24 29.99 1016 7 11 0.00 0.03
5:18 am 05:18 Cloudy 72 22.2 69 20.6 91 91 ENE 18 30 30.00 1016 7 11 0.00 0.00
5:59 am 05:59 Cloudy with Mist and Fog 72 22.2 70 21.1 94 94 E 12 19 29.99 1016 6 10 0.00 0.00
6:59 am 06:59 Cloudy with Mist and Fog 73 22.8 71 21.7 94 94 SE 9 15 30.02 1017 6 10 0.00 0.00
7:19 am 07:19 Cloudy 73 22.8 71 21.7 94 94 ESE 8 13 30.03 1017 9 14 0.00 0.00
7:59 am 07:59 Cloudy 74 23.3 71 21.7 91 91 ESE 10 17 30.04 1017 9 14 0.00 0.00
8:52 am 08:52 Cloudy 75 23.9 71 21.7 88 88 E 10 17 30.06 1018 10 16 0.00 0.03
8:59 am 08:59 Cloudy 76 24.4 72 22.2 88 88 E 9 15 30.05 1018 10 16 0.00 0.03
9:59 am 09:59 Mostly Cloudy 79 26.1 72 22.2 79 79 E 12 19 30.06 1018 10 16 0.00 0.00
10:59 am 10:59 Cloudy 79 26.1 72 22.2 79 79 E 10 17 30.07 1018 10 16 0.00 0.00
11:59 am 11:59 Mostly Cloudy 80 26.7 73 22.8 79 79 E 9 15 30.07 1018 10 16 0.00 0.00
12:59 pm 12:59 Mostly Cloudy 82 27.8 73 22.8 74 74 E 13 20 30.06 1018 10 16 0.00 0.00
1:54 pm 13:54 Mostly Cloudy 78 25.6 72 22.2 82 82 E 15 24 30.06 1018 7 11 0.00 0.00
2:32 pm 14:32 Mostly Cloudy 79 26.1 72 22.2 79 79 ENE 14 22 30.05 1018 9 14 0.00 0.00
2:59 pm 14:59 Mostly Cloudy 79 26.1 73 22.8 82 82 E 14 22 30.04 1017 10 16 0.00 0.00
3:59 pm 15:59 Mostly Cloudy 79 26.1 72 22.2 79 79 ENE 15 24 30.04 1017 10 16 0.00 0.00
4:59 pm 16:59 Mostly Cloudy 80 26.7 72 22.2 76 76 E 13 20 30.03 1017 10 16 0.00 0.00
5:14 pm 17:14 Mostly Cloudy 79 26.1 72 22.2 79 79 ENE 15 24 30.03 1017 10 16 0.00 0.00
5:45 pm 17:45 Mostly Cloudy 78 25.6 71 21.7 79 79 E 14 22 30.04 1017 10 16 0.00 0.00
5:59 pm 17:59 Mostly Cloudy 78 25.6 72 22.2 82 82 E 14 22 30.03 1017 10 16 0.00 0.00
6:59 pm 18:59 Mostly Cloudy 75 23.9 70 21.1 84 84 E 13 20 30.04 1017 10 16 0.00 0.00
7:29 pm 19:29 Mostly Cloudy 75 23.9 71 21.7 88 88 E 9 15 30.05 1018 10 16 0.00 0.00
7:59 pm 19:59 Cloudy 75 23.9 71 21.7 88 88 E 7 11 30.04 1017 10 16 0.00 0.00
8:59 pm 20:59 Cloudy 75 23.9 71 21.7 88 88 ESE 7 11 30.05 1018 10 16 0.00 0.00
9:59 pm 21:59 Cloudy 74 23.3 71 21.7 91 91 ESE 5 7 30.05 1018 10 16 0.00 0.00
10:59 pm 22:59 Cloudy 74 23.3 71 21.7 91 91 E 3 6 30.05 1018 10 16 0.00 0.00
11:59 pm 23:59 Cloudy 74 23.3 71 21.7 91 91 E 5 7 30.04 1017 10 16 0.00 0.00

Powered by AerisWeather